Location: Bothwell
(42.3833°S, 147.0000°E)
Time: 03:06:28
(UTC+11:00)

LilacSat-2 - Pass Details

Date: 04 October 2022
Orbit: 504 x 526 km, 97.5° (Epoch: 30 November)

Event Time Altitude Azimuth Distance (km) Brightness Sun altitude
Rises 19:50:17 0° 179° (S) 2,666 ? -6.1°
Reaches altitude 10° 19:52:36 10° 190° (S) 1,766 ? -6.5°
Maximum altitude 19:55:52 28° 250° (WSW) 996 ? -7.1°
Drops below altitude 10° 19:59:06 10° 309° (NW) 1,735 ? -7.7°
Sets 20:01:21 0° 321° (NW) 2,610 ? -8.1°
